Location:  
MeteoStar


Sort by weather type Sort by elevation Sort by visibility Sort from west to east north Sort from north to south Alphabetically Sort from strongest wind speed Sort from lowest to highest pressure Sort from highest to lowest dew point temperature Sort coolest temperatures to warmest Sort warm temperatures to coolest
 Metric

Current Observations for United Kingdom sorted from lowest visibility

Aviemore09:00ZSnow33 320.62988.7SSW 7 27721
Cairngorm09:00ZNot Avail.24 240.62SW 42 Gusting to 57 44084
Milford Haven09:00ZNot Avail.42 3911002.4WSW 12 Gusting to 30 35144
Mumbles09:00ZNot Avail.46 3811003.4SW 32 Gusting to 38 36114
Redesdale09:00ZNot Avail.37 351.5996.2SW 12 Gusting to 24 29692
Tulloch Bridge09:00ZRain35 342989.9SSW 11 27777
Eglinton / Londonderr09:20ZShowers nearby39 372.75994.1SW 18 3029
Birmingham / Airport09:20ZClear37 362.751003.3S 5 33324
Staverton Private 09:20ZShowers nearby43 392.751004.2SSW 6 3995
Manchester Airport09:20ZClear39 362.751001.3S 4 36226
Portglenone09:00ZShowers36 343995.5SSW 12 28209
Chivenor09:00ZShowers41 3841004.9WSW 18 Gusting to 31 3226
Lyneham09:00ZNot Avail.38 3641005.5SSW 5 34475
Aultbea09:00ZLight Showers43 354984.0SW 23 Gusting to 36 3436
Aonach Mor09:00ZNot Avail.26 254SW 30 Gusting to 61 93707
Isle Of Portland09:00ZShowers45 3841007.2WSW 29 Gusting to 41 35173
Saint Catherines Point09:00ZNot Avail.49 4141007.0WSW 16 4352
Herstmonceux09:00ZMist37 3741007.7SE 2 37170
Crosby09:00ZClear43 3851000.0SW 17 Gusting to 28 3526
London / Gatwick Airport09:20ZClear41 3961006.2S 3 41203
London City Airport09:20ZClear43 3761006.1WSW 4 4116
Inverness / Dalcross09:20ZShowers39 366987.1SSW 14 3129
Glasgow Airport09:20ZMostly Cloudy41 366993.1SW 20 Gusting to 31 3226
Edinburgh Airport09:20ZClear39 366992.2SW 17 30134
Prestwick Airport09:20ZMostly Cloudy43 366994.1S 14 3665
Benbecula09:20ZShowers nearby45 326984.1WSW 34 Gusting to 44 3519
Scatsa / Shetland Island09:20ZClear41 346977.1SSW 32 Gusting to 42 2972
Dundee / Riverside09:20ZClear41 376991.1SW 22 3113
Keswick09:00ZShowers41 376997.7SW 11 Gusting to 27 34265
Sennybridge09:00ZShowers37 3561003.2SW 14 281007
High Wicombe Hqstc09:00ZMist36 3661006.2SSW 5 32669
Aberporth09:00ZLight Showers40 3871002.0SW 12 Gusting to 25 33436
Lakenheath Royal Air Force Base08:56ZClear38 3471005.0S 6 3332
Manston09:00ZNot Avail.38 3671007.7S 7 33180
Mildenhall Royal Air Force Base08:56ZClear37 3771005.0S 6 3232
Wittering09:00ZNot Avail.37 3571004S 10 30275
Carlisle09:00ZNot Avail.39 377996.7N 3991
Lough Fea09:00ZLight Snow Showers34 337995.9SW 7 28738
Pembrey Sands09:00ZNot Avail.44 3981002.9WSW 28 Gusting to 37 349
Baltasound09:00ZClear42 368977.5SSW 29 Gusting to 40 3149
Fair Isle09:00ZPartly Cloudy42 368981SSW 32 Gusting to 47 31187
Nottingham Weather Centre09:00ZNot Avail.38 3581003SSW 6 33383
Little Rissington09:00ZNot Avail.36 3581004.9SSW 9 29705
Kenley09:00ZNot Avail.38 3781007.2SW 8 32557
Langdon Bay09:00ZNot Avail.38 3781008.2WSW 5 34383
Culdrose09:00ZMostly Cloudy45 4091005.7W 20 Gusting to 39 37255
Holbeach09:00ZNot Avail.37 3691004.2SSW 13 299
Marham09:00ZClear35 3491005.2S 8 2875
Church Lawford09:00ZNot Avail.38 3691004.2S 5 34351
Shoeburyness09:00ZNot Avail.41 3891007.2SW 8 366
Camborne09:00ZCloudy43 4091005.7WSW 11 37285
Cardinham09:00ZLight Showers40 3891005.5WSW 11 33656
Bournemouth Airport09:00ZLight Showers40 39101006.7S 5 3636
Southampton / Weather Centre09:20ZPartly Cloudy43 39101006.1SSW 3 4329
Alderney / Channel Island09:20ZShowers nearby48 41101008.2SW 16 42232
Jersey Airport09:00ZClear46 40101010.0SW 14 Gusting to 26 40275
Shoreham Airport09:00ZNot Avail.36 35101007.5NE 1 366
Biggin Hill 09:20ZNot Avail.39 37101006.5SSW 9 33600
Farnborough09:00ZNot Avail.37 36101006.7S 2 37213
Linton-On-Ouse09:00ZNot Avail.39 34101000.0S 11 3252
Boscombe Down09:00ZMostly Cloudy38 37111006.2SSW 5 34406
London / Heathrow Airport09:00ZNot Avail.40 37121006.5SSW 8 3578
Southend-On-Sea 09:20ZNot Avail.39 39121006.1S 6 3549
Lydd Airport 09:20ZClear45 41121008.1SW 4 439
Blackpool Airport09:00ZNot Avail.42 3812S 11 3632
Humberside09:20ZNot Avail.39 37121001.2SSW 15 31101
Hawarden09:00ZClear39 37121001.2SSE 5 3532
Wattisham09:00ZClear37 36121006.5SW 7 32285
Fairford Royal Air Force Base08:56ZClear39 36121005SSW 5 35285
Odiham09:00ZClear41 38121006.7SSW 9 35403
Middle Wallop09:00ZMostly Cloudy39 38121006.5SSW 5 35298
Northolt09:00ZClear38 36121006.5SW 5 34124
Leeming09:00ZClear38 3412999.4S 10 31131
South Uist Range09:00ZNot Avail.44 3512984.5WSW 33 Gusting to 45 3332
Strathallan09:00ZLight Showers40 3512991.5SW 15 Gusting to 25 32114
Glen Ogle09:00ZNot Avail.32 3012SSW 17 Gusting to 40 211850
Bingley09:00ZNot Avail.37 3512999.5SW 16 Gusting to 25 28859
Pershore09:00ZClear41 38121004.5SSW 8 36104
Larkhill09:00ZPartly Cloudy37 36121006.2SSW 4 34433
Dunkeswell Aerodrome09:00ZClear39 36121006SW 9 33826
Plymouth09:00ZClear44 41131005.7SW 16 Gusting to 33 37164
Walney Island09:00ZNot Avail.45 3713998.5SW 13 Gusting to 28 3949
Leeds And Bradford09:20ZClear39 3613999.5SSW 9 33682
Tiree09:00ZClear40 3513989WSW 19 Gusting to 33 3139
Benson09:00ZMostly Cloudy38 37131006.2S 8 32206
Dundrennan09:00ZNot Avail.41 3613995.9WSW 19 Gusting to 31 32374
Spadeadam09:00ZNot Avail.38 3513996.5SSW 11 31935
Thorney Island09:00ZClear41 38141007.2WSW 4 3813
Yeovilton09:00ZMostly Cloudy42 37151006.2SSW 7 3875
Cardiff-Wales Airport09:20ZMostly Cloudy43 39151004.2SW 10 37219
Bristol / Lulsgate 09:20ZNot Avail.39 36151004.4SSW 10 32620
Liverpool Airport 09:20ZPartly Cloudy41 39151000.2SSE 8 3685
Luton Airport 09:20ZClear36 36151005.4S 7 30524
Boulmer09:00ZNot Avail.38 3415995.5SSW 9 Gusting to 25 3275
Brize Norton09:00ZPartly Cloudy38 37151005.4SSW 4 35288
Waddington09:00ZMostly Cloudy38 35151003SSW 12 30223
Cranwell09:00ZMostly Cloudy38 35151003.4S 9 32219
Wainfleet09:00ZNot Avail.39 37151003.7SSW 14 319
Eskdalemuir09:00ZMostly Cloudy38 3415996SW 12 30793
Aberdaron09:00ZNot Avail.41 38151001SW 22 Gusting to 35 31311
Weybourne09:00ZNot Avail.37 35151004.7SSW 14 2868
Bedford09:00ZNot Avail.38 36151005.0SW 8 32278
Lerwick09:00ZMostly Cloudy41 3316978.7SW 39 Gusting to 51 28269
Shap09:00ZNot Avail.40 3616997.9SW 18 Gusting to 31 31816
Liscombe09:00ZNot Avail.38 37161004.9SW 14 Gusting to 26 301141
Loftus Samos09:00ZNot Avail.37 3417998.5SSW 17 27190
Fylingdales09:00ZNot Avail.34 3317SSW 16 Gusting to 25 24859
Bridlington Mrsc09:00ZNot Avail.39 36171000.5SSW 13 3149
Shobdon09:00ZNot Avail.36 35181003.5W 2 36324
Shawbury09:00ZShowers nearby40 35201002.2S 6 36249
Valley09:00ZCloudy45 3720999.5SW 17 Gusting to 25 383
Wick09:00ZNot Avail.39 3520983.7SSW 23 Gusting to 37 28127
Machrihanish09:00ZNot Avail.40 3620993.5SW 21 Gusting to 34 3042
Lossiemouth09:00ZMostly Cloudy38 3420986.7SSW 18 Gusting to 28 2842
Cambridge09:20ZNot Avail.39 36201005.2SSW 9 3349
Norwich Weather Centre09:20ZNot Avail.37 36201005.1SSW 8 3145
Stansted Airport09:20ZClear37 37201006.3SSW 8 31347
Cranfield09:20ZNot Avail.41 39201004.4SSW 13 34364
Exeter Airport09:20ZClear45 37201005.2SSW 9 4098
Coningsby Royal Air Force Base09:00ZMostly Cloudy37 35201003.4S 9 3022
Altnaharra09:00ZLight Showers37 3420983.2S 13 29265
Saint Bees Head09:00ZNot Avail.42 3520997.7WSW 20 Gusting to 29 33406
Warcop Range09:00ZNot Avail.38 3520998.0SSW 13 30744
Great Dun Fell09:00ZNot Avail.30 N/A20WSW 35 Gusting to 48 2778
Capel Curig09:00ZNot Avail.41 3520999.9SW 22 Gusting to 30 31708
Rhyl09:00ZNot Avail.39 35201000.2ESE 4 36252
Donna Nook09:00ZNot Avail.38 35201002.7S 13 3026
Scilly; Saint MaryS09:00ZClear44 37251006.2W 21 Gusting to 43 36101
Guernsey Airport09:00ZPartly Cloudy45 40251009.2W 11 Gusting to 27 39334
Isle Of Man / Ronaldsway Airport09:00ZShowers nearby44 3425997.7WSW 20 Gusting to 30 3655
Newcastle 09:20ZLight Rain39 3725997.3SW 9 33265
Tees-Side09:20ZClear39 3425998.2S 18 30121
East Midlands09:20ZNot Avail.37 36251002.3S 12 29308
West Freugh09:00ZNot Avail.40 3525996.0SW 19 Gusting to 28 3136
Kirkwall Airport09:00ZClear39 3525981.7SSW 24 Gusting to 35 2868
Sumburgh Cape 09:20ZMostly Cloudy43 3625980.1SSW 33 Gusting to 45 3216
Aberdeen / Dyce09:00ZNot Avail.40 3325989.0SW 19 Gusting to 27 31213
Leuchars09:00ZNot Avail.40 3525991.2SW 22 Gusting to 33 3039
Loch Glascanoch09:00ZClear37 3225985.2WSW 15 Gusting to 30 28869
Inverbervie09:00ZNot Avail.38 3525989.7SW 32 Gusting to 41 25439
Peterhead Harbour09:00ZNot Avail.N/A N/A25SW 18 Gusting to 31 49
Charterhall09:00ZNot Avail.39 3525994.2SW 15 31367
Lake Vyrnwy09:00ZNot Avail.35 35251001.5SSW 11 Gusting to 26 271181
Ballypatrick Forest09:00ZClear36 3425994.2WSW 21 Gusting to 29 25511
Glenanne09:00ZNot Avail.36 3525996.5WSW 10 29528
Belfast / Aldergrove Airport09:00ZNot Avail.38 3530996.4SW 13 30265
Belfast / Harbour09:20ZMostly Cloudy37 3630996.1SW 12 2916
Tain Range09:00ZNot Avail.37 3530984.7SSW 22 Gusting to 29 2613
Aboyne09:00ZNot Avail.39 3330988.2SW 18 Gusting to 33 30459
Prestwick Rnas09:00ZClear42 3630993.7SSW 19 Gusting to 28 3385
Drumalbin09:00ZNot Avail.37 3330994SW 20 Gusting to 31 27803
Trawscoed09:00ZNot Avail.40 37301002SSE 8 35206
Castlederg09:00ZClear36 3530995.0SW 9 29167
Stornoway09:00ZClear39 3340981.0SW 25 Gusting to 40 2829
Kinloss09:00ZClear38 3445986.4SSW 16 Gusting to 27 2922

Atlantic
Tropical Watch